Regional Weather Roundup
Issued by NWS

Home | Current Version | Previous Version | Graphics & Text | Print | Product List | Glossary On
Versions: 1 2 3 4 5 6 7 8 9 10 11 12 13 14 15 16 17 18 19 20 21 22 23 24 25 26 27 28 29 30 31 32 33 34 35 36 37 38 39 40 41 42 43 44 45 46 47 48 49 50
000
ASUS43 KLMK 251510
RWRKY
KENTUCKY REGIONAL WEATHER ROUNDUP
NATIONAL WEATHER SERVICE LOUISVILLE KY
1100 AM EDT MON MAY 25 2015

NOTE "FAIR" INDICATES FEW OR NO CLOUDS BELOW 12,000 FEET
WITH NO SIGNIFICANT WEATHER AND/OR OBSTRUCTIONS TO VISIBILITY.

KYZ001>023-026-027-061>063-070>075-251600-
WESTERN AND SOUTH CENTRAL KENTUCKY

CITY           SKY/WX    TMP DP  RH WIND       PRES   REMARKS
PADUCAH        RAIN      70  66  87 S8        30.08S FOG
HENDERSON      CLOUDY    72  66  83 S16       30.08S
OWENSBORO      CLOUDY    70  68  93 S15       30.13R
HOPKINSVILLE   DRIZZLE   70  68  94 S7        30.14S
BOWLING GREEN  LGT RAIN  69  64  84 S12       30.18S
GLASGOW        LGT RAIN  67  65  95 SW5       30.20S
$$

KYZ024-025-028>034-038-045-046-053-251600-
NORTH CENTRAL KENTUCKY

CITY           SKY/WX    TMP DP  RH WIND       PRES   REMARKS
LOUISVILLE/SDF CLOUDY    70  64  81 S12G24    30.15S
LOUISVILLE/LOU CLOUDY    68  65  90 S9        30.16S
FORT KNOX      LGT RAIN  66  64  94 S13       30.15S
$$

KYZ035>037-039>044-047>052-055>060-089>105-251600-
NORTHEAST KENTUCKY

CITY           SKY/WX    TMP DP  RH WIND       PRES   REMARKS
LEXINGTON      PTSUNNY   78  60  53 S17G24    30.18S
COVINGTON      LGT RAIN  66  63  90 S12       30.15F
FRANKFORT      CLOUDY    74  59  59 S15       30.16F
$$

KYZ054-064>069-076>088-106>120-251600-
SOUTHEAST KENTUCKY

CITY           SKY/WX    TMP DP  RH WIND       PRES   REMARKS
JACKSON        SUNNY     75  57  53 VRB5      30.23F
LONDON         SUNNY     78  55  44 S12G17    30.23S
SOMERSET       PTSUNNY   73  57  56 SW13G20   30.22S
MIDDLESBORO    SUNNY     73  60  61 S7        30.26S
MONTICELLO     PTSUNNY   79  62  55 S10       30.24R
$$




USA.gov is the U.S. government's official web portal to all federal, state and local government web resources and services.